AirNav   Air Wisconsin pilot careers
 
 1010 users online  

M77 Howard County Airport
Nashville, Arkansas, USA

GOING TO NASHVILLE?


FAA INFORMATION EFFECTIVE 16 AUGUST 2018

Location

FAA Identifier: M77
Lat/Long: 33-59-49.9000N / 093-50-17.1000W
33-59.831667N / 093-50.285000W
33.9971944 / -93.8380833
(estimated)
Elevation: 553.1 ft. / 168.6 m (surveyed)
Variation: 02E (2010)
From city: 3 miles N of NASHVILLE, AR
Time zone: UTC -5 (UTC -6 during Standard Time)
Zip code: 71852

Airport Operations

Airport use: Open to the public
Activation date: 03/1969
Control tower: no
ARTCC: FORT WORTH CENTER
FSS: JONESBORO FLIGHT SERVICE STATION
NOTAMs facility: JBR (NOTAM-D service available)
Attendance: UNATNDD
Wind indicator: lighted
Segmented circle: no
Lights: ACTVT MIRL RWY 01/19 & PAPI RWYS 01 & 19 - CTAF.
Beacon: white-green (lighted land airport)
Operates sunset to sunrise.

Airport Communications

CTAF: 122.9
  • APCH/DEP SERVICE PROVIDED BY FORT WORTH ARTCC ON FREQS 123.925/269.475 (TEXARKANA RCAG).

Nearby radio navigation aids

VOR radial/distance  VOR name  Freq  Var
TXKr015/31.3TEXARKANA VORTAC116.3007E

 
NDB name  Hdg/Dist  Freq  Var  ID
HOPE328/19.236203EHPC .... .--. -.-.

Airport Services

Parking: tiedowns
Airframe service: NONE
Powerplant service: NONE
Bottled oxygen: NONE
Bulk oxygen: NONE

Runway Information

Runway 1/19

Dimensions: 3994 x 75 ft. / 1217 x 23 m
Surface: asphalt, in good condition
Weight bearing capacity: 
Single wheel: 8.0
Runway edge lights: medium intensity
RUNWAY 1  RUNWAY 19
Latitude: 33-59.510368N34-00.154427N
Longitude: 093-50.366967W093-50.202617W
Elevation: 528.5 ft.549.6 ft.
Gradient: 0.5% UP0.7%
Traffic pattern: leftleft
Runway heading: 010 magnetic, 012 true190 magnetic, 192 true
Displaced threshold: 115 ft.no
Markings: nonprecision, in good conditionnonprecision, in good condition
Visual slope indicator: 2-light PAPI on left (3.00 degrees glide path)2-light PAPI on left (3.00 degrees glide path)
Touchdown point: yes, no lightsyes, no lights
Obstructions: 40 ft. trees, 1650 ft. from runway, 525 ft. right of centerline, 36:1 slope to clear
+5 FT FENCE 183 FT FROM RY END.
15 ft. trees, 500 ft. from runway, 95 ft. left of centerline, 20:1 slope to clear

Airport Ownership and Management from official FAA records

Ownership: Publicly-owned
Owner: HOWARD COUNTY
421 N. MAIN
NASHVILLE, AR 71852
Phone 870-845-7500
Manager: KEVIN SMITH
421 N MAIN
NASHVILLE, AR 71852
Phone 870-845-7500
HOWARD COUNTY JUDGE.

Airport Operational Statistics

Aircraft based on the field: 2
Single engine airplanes: 1
Multi engine airplanes: 1
    
Aircraft operations: avg 115/week *
58% local general aviation
33% transient general aviation
8% military
* for 12-month period ending 31 July 2016

Additional Remarks

RY 01 FENCE 3 FT AND ROAD 7 FT BELOW THLD 200 FT FM RY END.
RY 19 TURNAROUND HAS A 10 FT DROP OFF.

Instrument Procedures

NOTE: All procedures below are presented as PDF files. If you need a reader for these files, you should download the free Adobe Reader.

NOT FOR NAVIGATION. Please procure official charts for flight.
FAA instrument procedures published for use from 16 August 2018 at 0901Z to 13 September 2018 at 0900Z.

 
IAPs - Instrument Approach Procedures
RNAV (GPS) RWY 01   download (175KB)
RNAV (GPS) RWY 19   download (186KB)
NOTE: Special Take-Off Minimums/Departure Procedures apply   download (131KB)

Other nearby airports with instrument procedures:

M18 - Hope Municipal Airport (19 nm SE)
KDEQ - J Lynn Helms Sevier County Airport (28 nm W)
KTXK - Texarkana Regional Airport-Webb Field (33 nm S)
KMEZ - Mena Intermountain Municipal Airport (38 nm NW)
KADF - Dexter B Florence Memorial Field Airport (39 nm E)
 
Loc | Ops | Rwys | IFR | FBO | Links
Com | Nav | Svcs | Stats | Notes


 
Area around M77 (Howard County Airport)
 
Road maps at: MapQuest Bing Google
 
Aerial photo
WARNING: Photo may not be current or correct
Aerial photo of M77 (Howard County Airport)
Photo courtesy of the Arkansas Department of Aeronautics
Taken in the Spring of 2007

Do you have a better or more recent aerial photo of Howard County Airport that you would like to share? If so, please send us your photo.

 
Sectional chart

 
Airport distance calculator
Flying to Howard County Airport? Find the distance to fly.

From to M77

Sunrise and sunset
Times for 17-Aug-2018
 Local
(UTC-5)
 Zulu
(UTC)
Morning civil twilight06:1311:13
Sunrise06:3911:39
Sunset19:5900:59
Evening civil twilight20:2601:26

Current date and time
Zulu (UTC)  17-Aug-2018 23:51:38
Local (UTC-5)  17-Aug-2018 18:51:38
 
METAR
KDEQ 
28nm W 
172253Z AUTO 09003KT 10SM CLR 27/22 A2996 RMK AO2 SLP140 T02670222 TSNO
KTXK 
34nm S 
172253Z 13007KT 080V150 10SM CLR 28/21 A3000 RMK AO2 LTG DSNT S SLP153 T02780211
KMWT 
35nm N 
172338Z AUTO 00000KT 10SM BKN006 23/22 A2999 RMK AO2 T02330222
KMEZ 
38nm NW 
172335Z AUTO 00000KT 10SM CLR 25/24 A3001 RMK AO2
KADF 
39nm E 
172256Z AUTO 21004KT 10SM SCT008 24/22 A3001 RMK AO2 SLPNO T02390222 TSNO
KHOT 
47nm NE 
172253Z AUTO 00000KT 10SM CLR 23/23 A3001 RMK AO2 SLP158 T02330228
TAF
KTXK 
34nm S 
172057Z 1721/1818 21007KT P6SM VCTS SCT040CB TEMPO 1721/1723 -TSRA FM180100 19005KT P6SM BKN100 FM180700 20007KT P6SM VCTS BKN040CB FM181300 23008KT P6SM FEW035 BKN250
KADF 
39nm E 
172010Z 1720/1818 01006KT P6SM -RA BKN030 TEMPO 1720/1722 VRB10G18KT 2SM TSRA BR OVC025CB FM172200 28004KT P6SM SCT030 BKN100 FM180300 00000KT P6SM VCTS BKN040CB OVC100 FM181100 VRB02KT 5SM BR BKN250 FM181400 26004KT P6SM SCT250 AMD NOT SKED
NOTAMs
Click for the latest NOTAMs
NOTAMs are issued by the DoD/FAA and will open in a separate window not controlled by AirNav.

 

 
 

Would you like to see your business listed on this page?

 If your business provides an interesting product or service to pilots, flight crews, aircraft, or users of the Howard County Airport, you should consider listing it here.  To start the listing process, click on the button below
 
Add a business
 

Other Pages about Howard County Airport

Update a link
 
Copyright © AirNav, LLC. All rights reserved. Privacy Policy  Contact